DW9477 Weather Reports


time (UTC)temp
C
wind
direction
speed
KPH
gust
KPH
rain 1hr
cm
rain 24hr
cm
rain mn
cm
humidity
%
barometer
mb
20260503050015 11 23 3.2 4.8 0.00 0.00 0.00 71 1012.5
20260503045037 12 0 1.6 3.2 0.00 0.00 0.00 71 1012.5
20260503044017 12 45 3.2 4.8 0.00 0.00 0.00 71 1012.6
20260503043017 12 23 3.2 4.8 0.00 0.00 0.00 69 1012.4
20260503042017 13 0 1.6 3.2 0.00 0.00 0.00 67 1012.3
20260503041017 13 0 1.6 3.2 0.00 0.00 0.00 66 1012.2
20260503040017 14 0 1.6 3.2 0.00 0.00 0.00 64 1012.0
20260503035017 16 338 1.6 3.2 0.00 0.00 0.00 56 1012.0
20260503034017 14 23 3.2 4.8 0.00 0.00 0.00 62 1011.6
20260503033018 15 23 1.6 3.2 0.00 0.00 0.00 61 1011.6
20260503032017 16 0 3.2 4.8 0.00 0.00 0.00 59 1011.3
20260503031017 16 0 1.6 3.2 0.00 0.00 0.00 54 1011.1
20260503030017 16 45 4.8 8.0 0.00 0.00 0.00 61 1011.1
20260503025017 17 23 4.8 6.4 0.00 0.00 0.00 60 1010.9
20260503024017 18 0 1.6 3.2 0.00 0.00 0.00 53 1011.2
20260503023017 19 23 3.2 4.8 0.00 0.00 0.00 55 1011.4
20260503022037 21 45 3.2 6.4 0.00 0.00 0.00 45 1011.5
20260503021017 22 0 1.6 3.2 0.00 0.00 0.00 42 1011.6
20260503020017 25 0.0 1.6 0.00 0.00 0.00 38 1011.8
20260503015017 25 0.0 1.6 0.00 0.00 0.00 39 1012.0
20260503014017 25 248 1.6 3.2 0.00 0.00 0.00 35 1011.9
20260503013017 26 248 1.6 3.2 0.00 0.00 0.00 38 1011.8
20260503012017 26 0.0 1.6 0.00 0.00 0.00 31 1011.7
20260503011017 25 225 3.2 4.8 0.00 0.00 0.00 31 1011.7
20260503010037 26 0.0 1.6 0.00 0.00 0.00 39 1011.9
20260503005017 25 0.0 1.6 0.00 0.00 0.00 35 1011.7
20260503004017 25 0.0 3.2 0.00 0.00 0.00 32 1011.7
20260503003017 25 338 1.6 4.8 0.00 0.00 0.00 31 1011.7
20260503002017 25 338 3.2 6.4 0.00 0.00 0.00 31 1012.0
20260503001037 26 338 1.6 3.2 0.00 0.00 0.00 31 1012.0
20260503000017 26 248 3.2 4.8 0.00 0.00 0.00 32 1012.2
20260502235017 26 0.0 1.6 0.00 0.00 0.00 32 1012.3
20260502234017 26 158 3.2 6.4 0.00 0.00 0.00 35 1012.4
20260502233017 25 248 6.4 9.7 0.00 0.00 0.00 36 1012.4
20260502232017 25 45 1.6 4.8 0.00 0.00 0.00 35 1012.6
20260502231016 25 45 1.6 6.4 0.00 0.00 0.00 30 1012.6
20260502230016 26 23 4.8 8.0 0.00 0.00 0.00 31 1012.8
20260502225016 26 0.0 1.6 0.00 0.00 0.00 34 1013.1
20260502224017 26 68 1.6 6.4 0.00 0.00 0.00 34 1013.3
20260502223017 26 45 3.2 6.4 0.00 0.00 0.00 30 1013.5
20260502222020 26 225 1.6 3.2 0.00 0.00 0.00 28 1013.6
20260502221016 25 248 3.2 6.4 0.00 0.00 0.00 27 1013.7
20260502220036 25 225 1.6 8.0 0.00 0.00 0.00 31 1014.0
20260502215016 24 248 3.2 6.4 0.00 0.00 0.00 36 1014.1
20260502214016 25 135 3.2 6.4 0.00 0.00 0.00 32 1014.2
20260502213017 25 158 3.2 8.0 0.00 0.00 0.00 34 1014.5
20260502212016 25 23 1.6 4.8 0.00 0.00 0.00 35 1014.8
20260502211016 25 135 3.2 6.4 0.00 0.00 0.00 34 1014.7
20260502210017 25 270 1.6 4.8 0.00 0.00 0.00 37 1014.9
20260502205016 25 158 3.2 9.7 0.00 0.00 0.00 34 1015.2
20260502204016 24 248 3.2 8.0 0.00 0.00 0.00 36 1015.3
20260502203017 24 90 3.2 9.7 0.00 0.00 0.00 36 1015.4
20260502202017 24 113 1.6 3.2 0.00 0.00 0.00 35 1015.5
20260502201016 24 158 3.2 9.7 0.00 0.00 0.00 33 1015.6
20260502200016 23 158 3.2 8.0 0.00 0.00 0.00 34 1015.7
20260502195016 23 135 3.2 8.0 0.00 0.00 0.00 37 1015.7
20260502194016 23 135 3.2 6.4 0.00 0.00 0.00 39 1015.8
20260502193016 23 270 1.6 3.2 0.00 0.00 0.00 39 1015.7
20260502192016 23 113 3.2 8.0 0.00 0.00 0.00 39 1015.8
20260502191016 22 248 1.6 4.8 0.00 0.00 0.00 37 1015.9
20260502190016 22 135 3.2 4.8 0.00 0.00 0.00 41 1016.0
20260502185016 22 270 1.6 4.8 0.00 0.00 0.00 41 1016.1
20260502184021 22 315 1.6 4.8 0.00 0.00 0.00 43 1016.3
20260502183016 21 113 3.2 4.8 0.00 0.00 0.00 48 1016.3
20260502182036 21 113 3.2 6.4 0.00 0.00 0.00 43 1016.5
20260502181036 21 225 3.2 4.8 0.00 0.00 0.00 46 1016.5
20260502164016 18 158 3.2 8.0 0.00 0.00 0.00 51 1017.0
20260502163056 17 158 1.6 4.8 0.00 0.00 0.00 52 1017.1
20260502162016 17 135 1.6 4.8 0.00 0.00 0.00 54 1016.9
20260502161036 16 113 3.2 6.4 0.00 0.00 0.00 56 1017.0
20260502152016 13 135 1.6 4.8 0.00 0.00 0.00 65 1016.5
20260502151036 12 135 3.2 4.8 0.00 0.00 0.00 67 1016.5
20260502123021 6 0 1.6 4.8 0.00 0.00 0.00 82 1016.2
20260502122017 6 23 3.2 3.2 0.00 0.00 0.00 82 1016.4
20260502121037 6 0 3.2 4.8 0.00 0.00 0.00 81 1016.4
20260502115015 7 23 1.6 3.2 0.00 0.00 0.00 80 1016.6
20260502114017 7 45 1.6 3.2 0.00 0.00 0.00 79 1016.5
20260502113017 7 0 3.2 4.8 0.00 0.00 0.00 80 1016.5
20260502112037 7 45 4.8 6.4 0.00 0.00 0.00 81 1016.5
20260502111038 7 23 3.2 4.8 0.00 0.00 0.00 81 1016.4
20260502110017 7 23 3.2 4.8 0.00 0.00 0.00 81 1016.5
20260502105017 7 0 3.2 4.8 0.00 0.00 0.00 80 1016.5
20260502104017 7 23 4.8 6.4 0.00 0.00 0.00 80 1016.4
20260502103017 7 23 3.2 6.4 0.00 0.00 0.00 79 1016.5
20260502102017 7 23 3.2 4.8 0.00 0.00 0.00 79 1016.5
20260502101017 7 23 3.2 6.4 0.00 0.00 0.00 79 1016.4
20260502091017 8 23 3.2 8.0 0.00 0.00 0.00 76 1016.4
20260502071017 9 45 3.2 4.8 0.00 0.00 0.00 75 1016.5
20260502070016 10 45 1.6 4.8 0.00 0.00 0.00 73 1016.6
20260502065017 9 338 3.2 4.8 0.00 0.00 0.00 76 1016.5
20260502064017 9 0 1.6 3.2 0.00 0.00 0.00 75 1016.5
20260502063017 10 45 1.6 4.8 0.00 0.00 0.00 74 1016.7
20260502062016 10 23 3.2 6.4 0.00 0.00 0.00 74 1016.4
20260502061037 10 0 1.6 3.2 0.00 0.00 0.00 73 1016.4
20260502060017 10 0 3.2 8.0 0.00 0.00 0.00 72 1016.4
20260502055036 11 0 1.6 4.8 0.00 0.00 0.00 69 1016.5
20260502054016 10 45 3.2 4.8 0.00 0.00 0.00 72 1016.5
20260502053016 10 23 3.2 4.8 0.00 0.00 0.00 71 1016.5
20260502052036 11 45 3.2 6.4 0.00 0.00 0.00 70 1016.3
20260502051016 11 0 1.6 4.8 0.00 0.00 0.00 69 1016.4